Location: Beaurevoir
(49.9971°N, 3.3085°E)
Time: 19:45:16
(UTC+00:00)

Cosmos 2333 Rocket - Pass Details

Date: 23 May 2024
Orbit: 838 x 863 km, 70.8° (Epoch: 16 June)

Event Time Altitude Azimuth Distance (km) Brightness Sun altitude
Rises 02:29:37 0° 328° (NNW) 3,425 5.6 -10.4°
Reaches altitude 10° 02:32:05 10° 325° (NW) 2,489 4.9 -10.1°
Maximum altitude 02:37:42 61° 247° (WSW) 970 2.3 -9.5°
Drops below altitude 10° 02:43:20 10° 168° (SSE) 2,488 4.3 -8.9°
Sets 02:45:48 0° 165° (SSE) 3,424 5.0 -8.7°
